Theta_e
284 284 284 283 283 282 282 282 282 282 282 281 281 280 280 280 279 279 279 278 278 278 277 277 276 276 276 276 275 275 275 274 275 274 274 274 274 275 275 274 273 273 274 274 274 275 274 274 274 274 274 274 274 275 275 274 274 275 275 275 275 274 274 273 271 271 274 276 275 275 276 276 276 277 276 276 277 278 280 278 279 279 279 279 280
284 283 283 282 282 281 281 281 281 281 281 280 280 280 279 279 279 278 277 277 277 277 277 276 275 275 275 275 275 274 274 274 274 273 273 273 273 276 276 273 273 273 273 273 273 275 274 273 273 273 274 274 273 273 274 274 274 273 273 274 273 274 274 273 272 271 271 274 274 274 274 276 274 276 275 275 275 277 276 277 277 278 278 278 278
283 283 282 282 281 281 281 281 281 280 280 279 279 279 278 278 278 277 277 277 276 276 276 275 275 275 275 275 274 274 274 274 274 273 273 273 273 272 274 273 273 273 272 273 273 273 273 272 272 273 275 272 272 273 273 273 273 273 272 273 272 273 273 273 272 271 271 271 273 272 273 274 273 273 274 275 275 275 275 275 276 277 277 277 277
283 282 282 281 281 281 280 280 280 279 279 278 278 277 277 277 277 277 277 276 276 275 275 274 275 274 274 274 273 273 273 273 273 273 273 272 272 273 272 272 273 273 273 272 272 272 272 272 272 272 272 272 272 272 272 272 272 272 272 272 272 272 273 273 272 271 271 270 271 272 273 272 273 273 274 274 274 274 274 275 275 275 276 277 277
283 282 282 281 281 280 280 280 279 278 277 277 277 277 276 276 276 276 276 276 275 275 275 274 273 274 274 273 273 272 272 273 273 273 273 272 272 272 272 273 273 273 273 273 275 273 272 272 272 272 272 272 272 271 272 271 271 272 271 272 272 272 272 272 272 272 271 270 270 272 272 272 273 273 273 272 273 273 274 274 274 274 275 276 276
282 282 281 281 280 279 279 279 278 277 277 277 276 277 277 277 277 277 276 275 274 274 274 273 273 272 272 272 272 272 272 272 272 271 272 272 272 272 273 273 273 273 273 273 272 273 272 272 272 272 272 271 271 271 271 271 271 271 271 271 271 271 271 271 271 271 271 270 270 270 271 271 271 272 273 273 272 271 272 273 274 274 274 274 275
282 282 281 280 280 279 279 279 278 277 277 277 277 277 277 277 276 275 275 274 273 273 273 272 273 272 272 272 272 272 272 271 271 271 271 272 272 273 273 273 273 273 273 273 273 272 272 272 272 272 272 272 271 271 271 271 271 271 271 271 271 271 271 271 272 271 271 270 270 270 270 271 271 270 272 273 273 272 271 271 271 273 274 273 273
282 281 281 280 279 279 279 278 278 278 278 277 277 276 276 276 276 276 275 274 273 273 272 272 272 272 271 271 271 271 271 271 271 271 271 272 272 273 273 273 273 273 272 272 273 273 273 272 272 272 272 272 271 272 272 271 271 270 272 272 272 272 271 271 271 270 270 269 269 269 270 270 271 272 273 273 272 271 272 271 270 271 272 273 274
282 281 280 280 279 279 279 279 279 279 279 278 277 277 276 276 276 275 274 273 274 272 272 272 272 271 271 271 271 271 271 272 271 271 270 272 272 272 273 272 272 272 272 272 272 272 272 273 272 272 273 276 277 277 276 276 272 269 270 272 272 272 271 271 271 270 270 269 269 270 270 270 270 270 270 271 270 270 272 273 271 272 273 273 273
282 281 280 280 280 280 280 280 279 279 278 278 277 276 276 275 274 273 272 272 271 271 271 271 271 271 270 271 271 271 271 272 274 276 275 271 272 273 273 272 272 272 271 271 271 272 272 273 273 276 276 276 276 276 276 276 276 275 273 273 273 272 271 270 270 270 269 269 269 269 269 269 270 271 271 272 273 273 273 273 271 272 273 272 273
282 281 281 281 281 281 280 279 279 278 278 277 276 276 275 274 273 271 270 269 270 270 270 270 270 270 270 270 270 271 271 272 276 276 277 277 275 274 273 273 274 273 272 271 271 271 272 272 271 273 274 274 273 275 275 276 276 276 277 277 276 274 272 271 270 271 270 269 270 270 270 270 271 272 272 273 273 273 272 273 272 272 272 271 270
282 281 281 281 281 281 280 280 279 278 278 277 276 276 274 273 272 271 270 269 269 268 269 269 270 270 270 269 269 270 270 275 277 277 277 277 277 274 274 273 273 273 273 272 272 271 271 271 271 271 271 271 272 272 273 275 275 276 276 276 277 277 277 274 272 272 271 271 270 271 271 271 271 272 273 273 273 273 274 273 273 272 272 271 272
281 281 281 281 281 281 281 280 279 278 278 277 276 275 274 273 271 270 269 269 267 268 270 270 269 269 269 269 269 269 269 275 277 277 277 277 277 276 275 274 273 273 273 273 273 272 270 270 269 271 271 274 273 271 270 270 274 275 276 276 276 277 278 278 279 276 275 273 272 272 272 272 272 272 274 274 275 273 274 273 273 273 273 273 273
281 281 282 282 282 281 280 280 279 278 277 276 275 274 273 272 271 270 269 269 269 268 267 268 268 268 268 268 268 268 268 274 277 277 276 276 277 276 274 274 273 273 273 273 273 271 269 269 269 269 270 270 271 271 271 271 271 272 273 273 273 275 277 278 278 278 277 275 274 272 274 275 273 274 275 276 274 273 273 273 274 274 274 274 275
282 282 282 282 282 281 280 280 279 278 277 276 274 273 272 271 270 269 269 270 269 268 268 268 267 266 266 266 267 267 268 274 276 276 276 276 276 276 274 274 273 273 273 273 270 269 269 270 269 269 270 270 271 272 273 273 274 274 274 274 274 275 275 275 275 275 275 275 275 275 275 276 275 276 276 276 276 275 276 275 275 275 276 276 276
281 281 281 281 281 281 280 279 279 278 276 275 273 273 271 270 269 269 269 268 268 267 267 267 267 267 266 265 265 266 266 274 275 276 276 276 276 274 273 273 272 272 270 271 270 270 270 270 270 269 269 270 273 276 276 276 275 274 274 275 274 274 275 277 279 279 278 277 277 277 277 277 279 278 278 278 278 278 278 277 276 274 272 271 271
281 281 281 281 280 280 280 279 279 277 276 274 273 272 271 269 269 269 268 269 269 268 267 267 267 266 265 265 265 265 264 270 275 276 276 276 275 273 272 271 271 270 270 271 270 270 270 270 271 270 271 271 274 277 278 278 276 274 273 273 274 274 274 275 277 278 279 279 279 280 280 280 281 281 281 281 278 277 274 272 271 272 271 270 271
281 281 281 281 281 280 280 280 279 277 275 273 272 272 270 270 269 269 269 268 268 268 267 265 265 265 265 264 265 263 263 268 273 275 275 276 275 271 270 270 270 270 270 271 271 271 271 273 274 273 272 273 276 277 279 278 274 274 274 273 272 272 272 274 274 274 277 278 278 278 278 278 278 278 278 278 278 277 272 270 271 272 270 270 270
281 280 281 281 281 281 280 279 279 276 274 274 272 271 271 270 269 269 268 268 268 267 266 265 264 264 264 264 267 265 263 266 272 274 275 275 275 272 271 270 269 269 270 270 271 271 272 273 274 275 275 276 278 279 278 277 274 274 273 272 271 270 271 272 272 273 273 272 271 271 270 272 271 271 272 276 276 275 273 272 272 271 270 271 271
281 281 281 281 281 280 279 279 278 276 275 274 272 272 271 269 268 268 267 267 267 266 265 265 264 264 263 263 263 265 264 263 265 272 274 275 276 272 270 269 269 269 270 270 270 271 272 272 274 276 277 278 278 278 277 278 275 274 273 271 270 268 271 272 273 272 270 269 268 268 268 269 269 270 270 270 271 272 273 273 273 273 271 270 271
282 282 281 281 280 280 279 278 278 277 276 274 273 271 270 270 268 267 266 266 265 264 264 264 263 263 263 263 262 262 263 263 264 271 274 275 276 275 271 270 270 270 270 270 271 271 272 272 273 275 277 277 277 277 277 277 277 274 272 270 270 272 275 272 270 270 266 266 266 266 266 266 267 267 268 269 270 271 272 273 273 273 271 270 270
282 281 280 280 279 278 278 278 278 277 274 272 271 270 269 269 268 267 266 265 265 264 263 263 262 262 262 262 262 262 264 266 263 268 273 275 276 276 273 271 272 270 270 270 271 272 272 272 273 275 276 276 276 277 277 277 277 273 271 274 276 276 273 270 266 264 264 264 263 264 264 264 265 265 267 267 268 270 270 270 271 271 271 271 270
279 279 279 279 278 278 277 276 276 275 273 272 271 270 268 267 266 265 265 264 264 263 262 262 261 261 261 262 263 263 263 264 270 267 271 275 276 276 276 274 275 273 271 270 272 272 273 273 274 275 276 276 276 276 276 276 274 272 274 275 275 275 271 264 264 263 262 262 262 262 263 263 263 265 266 266 267 268 268 269 269 270 270 271 272
277 278 278 278 277 276 276 275 274 273 272 271 270 269 267 266 265 264 264 264 263 262 262 261 261 261 261 262 263 263 264 263 267 271 270 274 275 277 277 277 277 274 274 273 273 273 273 273 273 276 276 276 276 275 275 274 272 274 274 274 274 271 264 262 260 261 262 261 261 262 262 263 264 264 265 266 266 267 267 268 269 270 270 271 272
277 277 277 276 276 275 273 273 272 271 270 270 269 268 266 264 264 263 263 264 263 263 263 262 262 262 262 262 263 264 264 264 263 268 273 273 275 276 276 277 277 277 274 274 274 274 275 276 276 276 276 275 275 274 272 271 272 273 273 273 270 262 261 260 260 260 260 261 261 262 262 263 264 264 266 266 267 267 267 268 269 269 270 271 272
275 276 275 275 274 272 271 270 269 269 268 269 270 269 267 265 265 264 263 264 264 264 263 263 263 263 263 263 264 264 265 264 264 265 270 272 274 275 276 276 276 276 276 274 275 276 276 277 277 276 274 272 270 267 266 265 271 272 271 269 262 261 259 260 259 260 260 261 261 261 262 263 264 264 265 266 265 265 266 266 267 268 268 268 268
275 272 274 273 271 271 272 270 268 266 266 266 266 267 266 265 265 264 264 263 264 264 264 264 264 264 264 264 264 264 264 264 265 265 266 267 268 270 271 272 275 275 274 273 274 274 275 274 271 273 273 273 272 271 270 269 266 265 263 262 260 260 261 259 259 260 261 261 261 262 263 263 264 264 263 264 264 266 267 267 266 266 267 267 266
274 273 273 272 271 270 270 268 267 266 265 265 266 266 266 265 265 266 265 265 265 265 265 266 266 265 265 264 263 263 264 264 265 265 266 266 266 267 267 268 268 268 270 271 272 271 271 272 271 267 264 262 262 260 260 260 262 261 260 260 259 261 264 266 266 262 261 262 262 263 263 262 261 262 263 264 264 265 266 266 266 265 266 266 265
270 268 269 269 269 268 268 267 267 266 264 264 265 266 266 266 266 267 266 266 267 267 267 267 267 266 266 265 264 264 264 264 265 270 268 271 268 267 267 268 269 270 272 274 270 269 268 267 265 263 261 260 259 259 258 257 258 259 257 257 258 258 258 257 258 259 260 260 260 261 261 261 261 263 263 263 263 264 265 265 265 265 265 265 264
267 268 268 268 268 266 266 265 265 265 264 264 263 263 267 271 268 266 265 270 273 273 273 269 268 268 267 267 267 266 265 266 271 274 274 274 274 274 273 273 274 272 273 275 272 267 267 265 264 261 259 257 258 258 258 257 257 257 257 262 260 258 259 258 258 259 260 260 260 260 260 261 262 262 263 263 263 264 265 266 264 264 263 263 263
268 269 268 268 268 267 265 265 264 264 264 263 262 263 262 265 272 273 272 271 273 274 275 275 274 273 269 266 269 273 273 273 274 275 275 275 275 276 276 275 276 276 276 274 269 267 265 264 262 259 259 258 258 259 258 258 258 257 257 257 257 258 260 258 258 259 260 260 260 260 261 261 262 263 262 263 263 263 263 263 263 263 263 263 262
271 270 269 267 268 267 265 265 264 264 264 263 263 263 263 263 264 271 274 273 273 274 274 275 275 275 274 272 268 267 272 274 274 275 275 275 276 276 276 277 277 277 276 276 268 266 265 263 259 258 258 258 259 258 258 257 257 256 256 256 257 257 258 258 259 258 259 259 259 260 261 261 262 262 263 263 264 263 263 262 262 263 263 263 263
270 268 268 268 267 267 266 265 265 264 264 263 263 263 263 263 263 264 268 274 274 274 274 275 275 275 275 275 274 271 271 273 275 275 275 275 276 276 277 277 277 277 276 272 267 266 263 262 260 258 258 259 258 257 256 256 256 256 255 256 257 258 258 259 261 259 259 259 261 260 261 261 262 262 263 263 263 262 262 262 262 262 262 262 263
268 268 267 267 267 266 266 265 265 264 264 264 264 263 264 264 264 265 264 266 269 272 275 275 275 275 276 276 276 275 274 273 274 275 276 276 276 277 276 275 276 276 275 269 266 265 263 261 259 258 258 258 258 257 257 256 256 256 256 258 258 258 258 257 257 259 258 259 259 260 261 261 262 261 261 262 262 262 262 262 262 262 262 262 262
265 266 267 267 266 266 265 265 265 264 264 264 263 263 263 263 264 264 264 264 265 266 267 270 274 276 274 275 276 277 276 276 276 276 276 276 276 276 276 272 270 270 271 268 265 264 262 260 259 259 257 258 258 257 257 255 255 256 256 256 255 256 257 256 257 258 258 258 258 259 260 261 261 262 262 262 262 262 261 262 262 262 262 263 263
263 264 264 265 264 264 264 264 264 264 263 263 263 263 262 262 263 263 263 263 263 263 263 266 266 271 275 276 276 276 276 276 276 276 276 276 276 276 270 269 268 268 267 265 263 262 260 259 258 258 258 257 256 256 256 256 256 256 255 254 256 256 255 256 257 257 257 258 259 260 261 260 261 261 262 262 262 262 262 262 262 262 263 263 264
262 262 263 263 262 262 262 261 262 262 265 262 262 261 261 261 261 261 261 262 261 261 261 262 261 262 266 265 267 271 273 274 274 274 274 274 275 272 270 269 267 267 266 265 263 261 260 259 258 258 257 257 256 257 255 256 255 255 258 257 255 255 255 255 256 257 257 257 258 258 258 259 260 261 262 262 262 262 262 262 262 263 263 263 264
261 262 262 260 261 261 260 259 261 266 262 260 259 261 260 260 260 260 261 260 261 261 261 261 264 261 261 263 267 265 265 269 271 272 272 273 271 270 269 268 267 266 265 264 262 260 260 259 257 258 257 256 256 255 255 255 254 254 254 254 255 255 259 259 259 257 257 257 257 258 259 259 260 261 262 262 262 262 262 262 262 262 262 263 263
260 265 267 267 266 261 259 259 260 259 259 259 259 259 259 259 258 258 259 258 259 260 261 261 261 261 262 264 263 264 264 262 262 263 264 265 266 266 266 266 265 265 264 263 261 259 258 258 258 257 256 256 256 255 255 255 253 254 254 253 254 254 255 254 255 255 255 256 256 257 258 258 259 260 261 261 261 262 262 262 262 262 261 262 262
259 259 263 267 263 263 260 260 259 259 259 259 258 258 258 258 259 259 258 258 258 259 261 261 261 262 263 263 262 262 260 260 261 261 260 261 262 263 264 264 264 264 263 262 260 260 259 258 257 256 256 255 255 255 254 254 254 254 253 254 254 254 255 254 254 254 255 255 256 257 257 258 259 260 260 260 261 262 262 262 262 262 262 262 262
259 260 263 265 263 261 260 259 258 259 259 260 260 260 260 260 261 261 260 260 260 260 260 261 261 262 262 263 265 265 261 260 260 260 260 260 261 261 262 263 263 263 262 261 260 259 259 258 257 256 256 255 255 255 253 254 254 253 254 254 254 255 255 254 254 254 255 255 255 256 257 257 259 259 259 260 263 263 262 262 262 261 262 262 262
259 260 261 261 262 260 259 259 258 260 260 260 260 260 259 259 259 260 260 260 260 260 260 260 261 260 262 264 265 267 265 262 260 260 260 260 261 261 261 260 261 261 261 260 259 258 258 257 256 256 256 255 255 254 253 252 253 253 253 253 254 254 254 254 254 254 254 254 255 255 256 257 259 260 260 262 261 261 261 261 261 261 261 261 262
261 261 261 262 262 261 259 259 260 259 260 258 257 259 258 258 258 259 259 259 259 259 259 259 259 260 260 263 263 264 263 263 262 261 260 260 260 260 260 260 260 260 259 259 258 257 256 255 255 255 255 255 255 254 254 254 253 253 253 253 253 254 254 254 253 254 253 253 254 255 256 256 257 257 257 259 260 261 261 260 260 260 261 261 261
260 260 260 259 259 259 259 258 256 256 256 258 258 258 258 258 258 258 258 258 258 258 258 258 258 258 258 259 260 260 259 259 259 259 260 260 260 260 261 260 259 258 258 257 256 255 255 254 254 254 253 253 253 251 253 253 253 253 253 253 254 254 254 253 253 253 252 252 253 254 254 255 257 257 258 259 259 260 260 260 260 260 260 260 260
260 259 259 259 259 258 256 256 255 256 257 257 256 257 257 258 258 258 258 257 257 256 256 256 256 256 256 256 256 256 257 257 257 256 257 257 257 258 258 258 258 257 257 255 254 254 254 255 254 252 252 252 252 252 253 253 252 253 253 253 253 253 254 254 253 251 252 251 252 253 254 255 255 256 257 257 259 259 260 259 259 260 260 260 259
258 258 258 257 256 256 256 256 256 256 256 255 255 255 256 256 255 255 255 255 255 255 254 254 254 254 254 254 254 255 255 255 255 255 255 255 255 255 255 254 255 255 255 255 254 253 254 253 253 253 253 252 252 251 252 251 252 252 252 253 253 254 254 253 252 251 252 251 252 253 255 256 256 256 257 258 258 259 259 259 259 259 259 259 259
254 255 255 255 254 254 254 254 253 252 252 253 253 253 254 254 254 254 254 254 254 253 253 252 251 252 253 253 253 253 254 253 253 253 253 253 254 254 254 254 254 254 254 253 250 253 252 252 252 252 252 252 251 251 251 251 251 252 252 253 253 253 253 253 253 253 253 253 253 253 254 255 255 255 256 257 258 258 259 259 258 258 258 259 258
252 253 253 253 252 251 251 251 252 254 252 252 252 251 251 252 251 251 250 251 251 251 250 250 250 250 251 252 251 252 251 252 252 252 252 253 253 253 252 251 252 252 250 250 249 251 251 251 251 251 251 251 251 251 251 251 251 251 251 252 253 253 254 254 253 252 252 251 252 252 253 253 254 254 255 256 257 258 258 258 259 258 258 258 258
251 250 250 251 251 251 251 251 252 250 250 251 251 251 251 250 250 249 249 249 249 250 248 249 249 249 249 251 250 251 251 251 251 251 252 252 252 251 251 251 250 251 250 251 251 250 251 251 251 251 251 251 251 251 251 251 251 251 251 251 253 255 255 255 255 253 254 254 253 253 253 253 253 254 255 256 257 258 258 258 258 258 258 258 258
250 251 250 251 251 252 251 251 252 251 251 250 248 248 249 249 248 249 248 249 249 249 249 249 250 250 250 251 250 251 250 251 251 251 251 251 251 251 251 251 250 250 250 250 250 250 250 250 251 251 251 251 251 251 251 251 251 251 251 251 254 255 255 256 256 256 255 254 253 253 253 253 254 255 257 258 259 259 258 257 257 258 258 257 257
250 250 250 250 251 251 251 250 249 248 248 248 247 247 249 248 248 248 248 248 249 249 249 249 249 250 250 250 250 251 251 250 251 251 251 251 250 250 251 251 251 250 250 250 250 251 251 251 251 251 251 251 251 251 250 251 251 251 253 254 254 255 255 255 255 255 256 256 254 254 254 255 256 257 258 259 259 258 258 258 258 257 257 257 256
Wind_Speed
8 7 8 8 9 8 8 7 7 7 7 7 8 7 6 6 5 4 5 4 4 4 4 4 4 4 4 4 4 4 3 3 3 3 3 3 3 3 2 2 3 3 3 3 3 3 3 3 4 4 2 3 4 4 5 4 3 5 3 3 4 3 4 5 8 13 15 6 4 5 6 10 8 7 11 10 10 11 10 11 12 11 11 10 11
8 8 7 8 8 8 8 6 7 7 7 7 7 7 6 6 5 4 5 4 4 4 4 4 4 4 4 4 3 3 3 2 2 3 3 2 3 1 0 2 2 3 2 2 3 3 2 3 4 4 3 3 4 4 5 4 4 3 3 4 4 4 3 4 7 9 15 16 7 3 5 7 9 5 8 12 11 11 12 11 10 10 10 10 10
8 8 9 8 8 7 8 7 7 7 8 7 7 6 6 5 5 5 4 4 4 4 4 4 4 4 4 3 3 2 2 2 1 2 1 1 1 1 2 1 1 1 2 2 2 2 3 3 4 3 3 3 4 4 4 4 3 3 4 3 4 4 4 4 6 9 12 15 11 8 5 8 9 10 9 8 10 10 11 11 11 11 10 11 10
9 9 8 8 8 8 8 7 7 7 8 7 7 6 6 4 5 5 5 4 4 3 4 4 4 4 3 3 3 2 2 2 1 0 1 1 0 1 1 1 1 2 2 2 2 2 3 3 3 3 3 3 4 4 4 3 3 3 3 4 4 5 4 3 4 7 10 13 14 8 8 9 10 7 8 8 9 9 9 11 10 12 12 10 9
9 9 9 10 9 9 8 7 8 7 7 7 7 7 6 5 4 5 5 4 4 4 3 2 3 4 3 3 3 3 3 2 1 0 1 1 1 0 1 1 1 1 2 2 3 2 3 3 3 4 4 4 4 3 4 3 3 4 5 4 4 4 5 5 6 6 9 12 14 9 7 8 8 9 7 9 9 9 9 11 11 10 11 10 9
9 10 9 10 9 9 9 8 8 8 8 8 8 7 7 6 6 5 5 5 4 4 4 3 3 3 4 3 3 2 3 2 1 1 1 0 0 0 1 0 1 1 2 2 2 2 2 3 4 4 4 4 5 4 3 3 4 4 4 4 4 4 5 5 6 6 8 10 11 13 9 8 11 8 6 8 10 12 11 10 9 8 9 11 9
10 10 10 10 10 9 9 9 9 9 8 8 7 7 7 7 6 6 5 5 4 4 4 4 3 3 3 4 3 3 2 2 2 2 2 1 1 1 0 0 1 1 2 2 3 3 3 3 3 3 4 4 4 3 3 4 4 4 4 5 4 5 6 7 7 9 10 11 12 11 12 10 9 13 8 7 10 9 11 13 12 8 9 10 12
11 11 10 10 10 10 9 8 8 9 8 8 7 7 7 7 6 5 5 5 5 4 4 4 3 4 3 3 3 3 3 3 3 3 2 2 1 0 0 0 1 2 2 3 3 3 3 3 4 4 4 4 3 3 3 5 4 4 4 5 6 7 8 7 8 9 10 11 11 12 11 12 11 10 12 10 10 9 6 9 13 13 12 10 8
12 12 11 11 11 10 9 8 7 9 9 9 8 8 7 7 6 6 5 4 4 4 4 4 4 4 3 3 3 3 4 3 3 3 3 1 2 1 1 1 2 2 3 3 3 3 4 4 4 3 3 6 11 11 10 9 5 5 4 3 6 7 8 7 7 9 9 10 12 12 12 12 12 12 11 11 12 14 13 10 12 11 11 12 10
12 12 12 11 10 10 10 9 9 9 9 9 8 8 7 7 6 6 5 4 4 3 3 3 3 4 4 4 4 4 3 3 5 8 5 3 1 0 1 2 2 3 3 3 3 3 4 4 4 7 9 10 11 12 12 11 12 9 6 5 5 5 6 7 7 7 8 10 9 10 12 12 9 13 14 11 14 13 14 13 13 13 12 12 10
13 13 12 11 11 11 10 9 10 10 9 9 7 9 9 7 6 5 4 4 4 4 4 4 4 4 4 4 4 4 4 3 9 7 7 6 4 3 2 3 4 4 3 3 4 4 4 4 3 4 5 7 6 11 12 13 13 14 14 14 11 8 7 8 8 8 9 10 9 8 8 12 14 10 12 16 10 14 12 12 13 12 12 13 14
13 12 11 11 11 12 11 11 11 11 10 10 9 8 8 7 7 6 6 5 5 3 4 4 4 4 4 4 4 4 4 7 10 8 7 6 6 4 3 3 4 5 5 4 4 3 4 3 3 2 2 4 5 4 7 12 13 13 14 14 14 15 15 11 11 10 9 10 11 10 9 11 11 11 11 12 12 11 13 13 13 14 13 13 12
12 11 11 12 12 12 11 12 11 10 10 9 8 8 9 8 8 8 8 5 4 5 6 5 5 4 4 5 4 4 4 7 9 8 7 7 7 6 4 4 4 5 6 6 5 3 3 4 3 3 2 8 6 5 5 5 9 14 15 16 17 18 19 21 20 14 11 12 13 16 13 14 15 13 12 14 14 17 13 13 13 13 14 15 12
12 12 12 13 12 12 12 12 11 11 10 9 9 9 9 10 8 7 6 6 6 5 5 5 5 5 5 5 4 4 3 7 9 9 8 7 7 6 4 5 5 6 6 6 5 3 3 3 3 4 3 3 4 6 6 7 7 8 9 9 10 14 18 21 21 23 21 16 16 17 16 12 13 12 15 15 16 14 14 15 12 14 14 14 14
12 13 14 13 11 11 13 12 11 10 10 10 9 9 10 8 8 8 8 8 8 8 7 6 5 5 5 4 4 4 3 8 9 9 8 8 7 7 4 5 5 5 6 4 3 3 3 4 4 4 4 4 5 8 8 8 8 9 9 10 10 8 8 8 10 11 11 13 15 16 16 15 16 17 15 13 14 14 14 16 15 13 14 13 13
13 12 13 12 12 13 12 12 11 11 11 10 10 10 9 10 10 8 7 6 5 4 4 4 6 6 5 4 4 5 4 8 9 9 8 8 8 5 4 5 5 4 3 4 3 4 4 4 4 5 4 5 9 14 12 10 9 10 9 9 9 11 12 12 18 19 17 13 11 12 12 14 21 19 19 17 15 13 13 13 12 12 14 13 13
14 15 13 12 13 12 12 12 12 12 12 12 12 11 11 9 7 7 8 8 8 8 8 7 5 6 5 5 6 6 4 7 9 9 9 9 7 3 5 4 4 4 5 5 4 4 5 5 5 5 6 6 11 14 14 14 7 8 11 13 11 9 10 11 17 21 21 23 25 26 27 27 27 28 29 32 25 21 16 14 13 11 12 12 11
15 13 12 12 13 12 13 13 13 13 12 14 13 11 9 7 9 9 11 10 9 9 7 6 5 6 6 7 7 6 5 6 9 9 10 10 8 5 5 3 4 5 4 5 4 4 6 12 10 8 8 9 13 14 14 12 8 9 10 10 12 12 10 7 7 11 20 21 22 24 26 27 28 29 28 27 26 20 12 13 12 11 13 10 13
12 12 13 12 12 12 12 12 12 13 13 13 12 12 11 12 9 8 7 7 8 7 7 7 6 5 6 6 8 8 5 6 9 10 11 11 9 4 4 4 4 5 5 5 5 5 6 8 11 10 10 10 14 12 14 12 8 8 8 10 11 10 9 10 10 11 10 12 13 13 15 17 15 13 14 24 25 21 13 13 11 10 11 10 9
12 11 11 12 11 11 11 12 12 13 14 12 10 10 8 7 9 9 8 7 7 7 7 7 8 7 5 5 6 6 6 5 6 12 12 13 14 6 5 5 7 6 5 5 5 5 6 6 8 11 13 13 11 13 15 15 10 8 7 7 9 12 9 10 10 12 13 12 12 12 13 13 12 12 11 12 12 11 13 12 11 11 11 12 11
11 12 11 10 10 11 10 11 14 13 12 12 10 8 9 10 9 9 9 7 6 6 7 7 6 6 5 6 6 6 6 7 7 13 13 14 15 12 6 8 6 6 4 6 5 5 5 5 5 10 11 10 12 15 15 15 15 9 5 6 7 11 14 9 11 14 10 10 10 11 11 10 10 10 10 10 10 10 10 12 11 11 11 11 12
9 8 8 9 9 10 11 10 11 11 8 9 9 9 7 8 9 9 8 8 9 8 6 6 6 6 5 5 6 7 8 11 7 11 15 15 15 17 8 7 8 5 6 6 7 6 5 5 5 6 9 11 14 14 16 16 17 7 7 14 17 17 11 7 7 7 8 8 9 9 9 9 9 9 9 9 10 11 12 12 13 13 13 12 12
6 7 7 8 9 10 10 11 10 8 9 10 11 10 9 9 8 8 9 8 8 8 8 7 6 6 6 6 6 7 7 8 15 10 14 15 16 16 17 12 14 9 8 8 7 5 3 6 5 7 10 13 13 14 15 16 12 8 15 15 14 16 11 5 7 7 7 8 8 9 9 8 9 9 10 11 11 12 13 13 14 14 13 13 14
6 7 8 8 8 8 9 9 9 8 10 10 10 10 9 9 8 8 8 9 9 8 7 7 6 7 8 7 6 7 7 7 11 17 12 15 15 17 17 17 16 10 8 7 5 5 7 5 3 10 13 12 13 14 14 13 10 15 13 13 14 11 5 7 4 6 7 7 8 8 9 8 8 9 10 11 12 13 13 13 13 14 14 13 14
6 7 7 7 7 7 6 8 9 8 9 10 11 10 9 9 9 7 8 8 8 9 9 8 9 9 8 8 8 7 7 7 7 12 17 15 16 16 17 17 17 17 10 6 6 6 9 13 13 12 11 12 14 14 11 11 14 13 13 12 9 3 5 5 5 5 6 7 8 8 8 8 8 9 10 12 12 11 10 10 11 11 10 11 11
6 7 6 6 6 6 7 6 7 7 8 8 10 10 12 11 10 9 9 9 9 10 9 9 9 9 9 8 7 7 6 7 7 7 8 12 12 16 17 16 16 16 14 9 13 15 15 14 13 10 8 9 8 3 3 4 10 12 11 9 2 4 3 4 4 5 6 7 7 8 8 8 8 9 10 10 9 9 9 10 11 10 9 9 10
6 5 6 6 5 7 9 8 7 6 6 6 6 7 8 9 9 9 10 10 10 10 10 10 9 8 8 8 7 6 7 7 7 7 7 7 7 8 10 10 14 14 9 7 9 8 8 7 2 8 9 12 12 10 9 8 6 5 4 3 3 3 4 4 5 5 6 6 8 7 8 8 8 9 9 8 8 8 8 9 9 9 10 8 10
7 7 7 6 7 7 7 8 9 7 7 7 8 7 8 9 11 13 14 15 14 12 11 11 12 11 11 8 7 6 7 7 8 9 8 8 7 7 7 6 6 5 6 6 6 6 6 3 2 1 1 3 4 3 4 4 5 5 4 4 5 5 5 8 8 5 5 6 7 7 8 8 8 9 9 8 8 8 8 8 8 10 10 9 9
4 4 5 5 6 6 6 6 7 7 7 7 8 8 9 10 11 9 6 5 8 11 11 10 9 8 8 9 9 9 8 9 11 10 10 12 11 8 8 8 7 7 9 12 6 4 4 3 2 3 2 3 4 5 5 5 6 5 4 4 5 5 3 2 5 6 6 5 6 7 8 8 9 8 8 8 8 8 7 8 8 9 9 8 9
4 5 4 5 5 5 5 6 6 7 7 8 7 6 6 9 8 7 7 7 14 14 10 9 7 7 8 8 9 11 11 10 10 17 18 18 18 18 15 14 14 11 11 16 7 6 6 5 5 6 5 4 5 6 6 5 6 6 5 4 4 3 4 4 4 6 6 5 6 7 8 8 8 8 8 8 9 8 8 9 9 8 9 8 9
5 5 5 6 7 6 6 6 6 6 6 6 6 7 5 6 12 16 13 10 11 14 15 14 13 14 9 7 8 13 9 9 15 17 18 17 18 18 18 18 18 17 15 8 6 7 6 7 6 6 4 5 5 6 6 6 6 6 6 4 3 3 5 4 5 5 5 6 7 7 7 7 8 8 8 8 9 10 9 7 7 8 8 9 10
7 7 7 6 6 6 6 6 6 7 6 6 7 7 7 8 7 11 16 15 16 17 16 15 14 14 17 13 8 5 10 13 13 15 15 16 17 18 19 20 20 18 16 14 8 7 7 6 6 5 5 5 6 6 6 6 6 6 5 4 5 3 3 4 4 3 5 6 7 8 7 7 7 8 8 8 9 9 9 9 8 9 9 8 8
7 5 5 6 6 6 6 7 7 7 7 8 7 7 8 8 9 8 8 16 19 17 17 18 18 16 16 16 17 14 12 13 15 15 16 16 18 18 19 20 20 18 18 10 7 7 5 6 6 5 6 7 7 7 6 5 6 6 5 5 5 4 3 4 4 4 4 6 6 7 7 7 8 9 8 8 8 9 9 9 9 9 8 9 9
6 5 5 5 6 6 7 7 7 7 7 7 7 8 8 8 8 6 5 5 8 13 18 19 18 18 20 19 17 16 16 17 16 17 18 18 18 19 18 14 17 19 16 7 7 6 6 6 6 6 6 6 7 7 6 6 6 6 5 5 5 5 4 3 3 5 4 5 6 7 7 7 8 7 8 7 7 7 8 9 9 9 9 9 10
4 5 6 5 5 6 6 6 6 6 6 7 7 7 7 6 6 7 7 8 9 9 7 9 14 19 14 13 16 18 18 18 18 17 17 16 17 17 17 10 9 8 9 6 7 7 6 7 6 6 6 7 7 7 7 6 6 6 6 6 5 5 4 4 4 4 5 5 6 6 7 8 7 7 7 8 8 8 8 9 8 8 9 10 10
3 3 3 4 3 3 5 6 6 6 6 6 6 6 6 5 6 6 6 6 6 6 5 5 3 4 12 14 15 16 15 14 15 16 16 17 16 16 9 8 7 8 8 6 6 6 6 6 6 6 6 6 7 7 7 7 6 6 6 6 6 5 5 4 5 4 5 6 6 7 8 7 7 7 7 7 7 8 7 8 9 9 9 9 8
2 2 2 2 3 3 3 4 4 4 4 4 5 5 5 5 5 4 5 6 4 2 3 2 2 1 2 3 5 4 9 12 13 13 14 14 16 12 8 8 8 8 8 8 7 6 7 6 6 6 6 7 6 7 6 6 6 6 5 6 5 5 5 4 5 6 5 5 6 6 6 7 7 7 7 8 8 7 7 8 8 9 10 13 15
1 1 1 1 2 2 3 3 2 4 3 3 3 4 4 4 4 4 5 5 3 4 4 2 3 3 3 3 2 3 3 7 10 12 13 13 11 9 8 7 8 8 9 7 7 7 7 6 6 7 6 6 7 6 6 6 6 7 6 5 5 6 8 7 8 6 5 6 6 6 6 7 7 7 7 7 8 8 8 8 7 8 10 13 10
1 2 3 4 4 3 4 3 3 4 3 3 3 4 5 3 2 3 2 2 3 3 2 3 3 3 3 2 1 1 3 4 5 7 5 5 6 5 5 6 7 8 7 6 6 6 6 6 6 6 6 6 7 6 6 6 6 6 6 6 6 5 6 5 5 5 5 5 6 6 6 7 7 7 7 7 8 8 8 8 7 8 9 10 9
2 1 2 3 3 3 4 4 3 3 4 4 3 4 3 4 5 4 3 5 3 3 3 4 4 3 3 3 4 3 6 6 6 5 5 6 7 8 7 8 8 8 8 7 6 6 6 6 6 6 6 6 6 7 6 6 6 6 6 6 6 6 6 5 5 5 6 5 5 6 6 7 7 7 6 6 7 8 8 7 7 8 9 10 10
3 2 2 3 5 4 4 4 3 3 3 3 3 3 3 3 3 2 3 3 3 3 4 3 3 2 3 5 9 9 7 6 6 5 6 6 7 8 9 8 9 9 7 7 6 6 6 6 6 6 6 6 6 6 6 6 6 6 6 6 6 6 6 5 5 6 6 5 5 6 6 7 7 7 7 7 9 9 7 7 7 7 10 10 10
4 3 2 2 5 4 3 3 4 3 3 3 3 3 2 3 2 3 3 3 2 2 2 2 2 3 5 10 10 13 9 6 6 6 6 6 6 7 7 7 7 7 7 6 6 6 6 6 6 6 7 7 7 7 7 6 6 6 6 6 6 6 6 7 6 5 5 6 6 6 6 6 7 7 8 9 8 8 7 6 6 8 8 10 10
3 3 3 3 3 3 3 3 3 3 3 3 2 3 3 3 2 2 2 2 2 2 2 2 2 2 3 7 9 11 7 5 3 5 6 6 7 7 7 7 6 6 6 5 5 6 6 5 6 6 6 7 7 7 7 7 6 6 6 6 7 7 7 6 6 6 5 5 6 6 6 5 7 7 7 7 7 8 7 7 7 8 8 9 9
3 3 3 4 4 4 4 4 2 2 2 2 2 2 3 2 2 1 2 2 2 2 2 3 2 3 3 4 5 5 5 5 5 5 5 5 6 7 7 6 6 6 5 5 5 5 6 6 6 6 6 6 6 5 6 6 6 6 6 7 6 7 7 7 7 6 6 6 6 5 5 5 7 7 7 8 7 8 7 7 7 8 8 8 9
3 3 3 3 3 3 3 3 3 4 4 3 2 2 2 2 2 2 2 3 3 3 3 3 3 3 4 4 4 5 5 5 6 6 6 6 7 6 6 5 5 6 5 5 5 5 5 6 6 6 6 6 6 6 6 6 6 6 6 7 7 8 8 8 7 5 5 4 5 5 5 6 7 6 7 8 8 8 7 7 7 8 9 9 9
3 3 3 3 3 3 3 3 3 3 3 2 3 2 3 3 3 3 3 3 4 4 4 4 4 3 4 5 5 6 6 6 6 6 6 6 6 7 7 6 6 6 5 6 6 6 6 6 6 7 7 7 6 6 6 6 6 6 6 7 8 8 7 6 5 5 6 5 6 5 6 6 6 7 9 8 8 8 8 7 6 7 8 9 9
3 3 2 3 2 3 3 3 2 1 1 1 1 2 2 2 2 3 3 4 3 4 3 3 3 4 5 5 5 5 6 5 6 6 6 6 7 7 7 6 7 7 7 6 4 6 6 6 6 7 7 6 6 6 6 6 6 6 6 6 7 7 7 6 6 6 7 6 6 5 6 6 6 7 9 9 8 8 8 7 7 8 8 8 8
3 4 3 3 2 2 1 2 1 2 2 1 1 1 2 2 1 2 3 3 3 4 3 4 4 5 5 5 5 5 5 6 6 6 6 6 6 6 6 6 7 6 6 6 5 5 5 5 6 6 6 6 6 6 6 6 6 6 6 6 7 7 8 7 7 7 7 6 6 5 5 6 7 7 8 8 8 8 8 7 7 7 8 8 8
2 2 2 1 1 1 1 1 3 2 3 3 2 2 3 2 3 3 3 3 4 5 3 5 5 5 4 5 5 5 6 7 6 6 6 6 6 6 6 6 6 7 6 6 6 6 6 6 6 6 7 6 6 6 6 6 7 7 7 7 8 13 14 13 9 7 8 7 5 6 5 6 7 8 9 10 10 8 7 6 6 8 8 7 7
2 1 1 1 1 0 1 1 0 0 0 1 2 2 2 2 2 3 3 4 4 4 4 4 6 6 5 5 6 6 5 6 6 6 6 6 6 6 6 6 6 6 6 6 6 6 6 5 6 6 6 6 6 6 6 6 7 7 7 7 11 14 13 15 15 13 9 5 6 5 6 7 8 9 9 8 8 9 8 7 7 8 7 7 7
2 1 1 1 0 0 0 1 1 1 1 1 2 2 2 3 5 4 4 4 6 6 5 5 5 5 5 5 6 6 6 6 6 6 6 6 6 6 6 6 6 6 6 6 6 6 6 6 6 6 6 6 6 7 6 7 7 7 9 12 14 14 15 14 10 10 14 10 6 6 7 9 10 9 9 8 7 6 8 8 8 7 7 6 6
Wind_Direction
139 138 130 130 129 130 130 128 125 123 117 114 116 120 123 126 137 143 127 142 135 120 115 115 107 108 92 89 85 76 70 57 24 42 38 55 30 82 15 10 8 328 0 342 349 23 356 336 314 312 344 5 321 311 308 303 312 310 302 319 314 313 313 288 287 291 293 288 307 324 333 318 310 322 318 320 320 316 316 317 313 314 315 314 314
145 138 133 135 135 132 128 128 128 124 120 119 120 123 130 133 140 126 129 140 120 123 119 112 108 104 111 91 83 85 71 73 56 55 58 40 17 55 86 16 355 336 358 343 348 350 354 318 312 311 322 342 310 309 303 309 304 316 322 319 305 299 292 295 287 286 292 305 310 333 309 305 306 323 322 321 320 318 317 316 312 311 312 310 306
143 140 139 139 138 134 133 135 133 129 126 125 124 127 132 138 137 135 136 127 119 120 131 120 106 110 107 116 110 102 102 95 66 99 47 78 45 7 8 34 343 327 341 320 317 324 346 318 304 312 329 332 307 297 304 301 324 332 313 315 310 299 293 284 290 291 295 294 306 319 328 320 316 322 324 314 310 309 310 313 313 311 306 303 301
145 142 142 140 140 137 140 140 135 135 131 131 131 133 135 137 134 132 137 130 124 113 104 118 125 117 126 128 140 139 120 109 96 95 134 115 83 356 337 354 331 308 295 296 309 327 302 312 299 315 320 313 301 301 298 319 325 320 322 314 310 302 298 303 295 292 296 297 302 321 326 323 311 314 313 305 303 311 311 305 302 299 301 302 303
149 149 148 146 147 146 147 146 144 141 136 136 139 137 139 137 133 139 135 137 132 123 122 127 147 138 146 142 135 145 137 131 128 92 104 116 121 185 282 278 282 289 295 291 304 303 294 295 298 308 313 305 298 303 302 326 336 341 318 314 318 314 315 305 298 293 292 293 299 309 320 305 300 306 310 312 314 304 303 299 300 298 297 297 302
154 152 154 152 154 154 153 153 155 149 142 142 146 147 144 144 144 143 144 142 135 145 161 168 170 162 152 145 142 139 131 129 141 166 155 132 128 229 220 235 308 318 295 286 277 288 290 285 286 292 293 294 293 294 323 351 338 321 317 313 310 310 303 297 291 292 291 290 298 306 315 317 313 306 318 315 312 311 305 298 293 294 297 301 296
158 159 160 159 158 162 162 164 158 149 147 148 148 148 147 146 147 151 147 140 141 162 165 164 159 152 159 143 149 146 130 147 175 176 149 169 179 192 226 39 332 299 289 291 296 283 275 270 275 276 280 282 290 305 337 327 316 304 300 304 304 303 305 309 311 307 304 302 301 301 305 309 310 310 315 310 299 295 303 307 303 299 294 293 299
162 164 163 164 167 167 166 162 154 148 146 147 150 150 147 149 150 146 133 143 160 170 173 169 178 150 177 148 161 138 155 184 189 163 151 142 124 81 68 251 264 277 278 288 282 274 269 272 268 269 270 272 281 305 307 299 287 284 290 300 307 310 309 309 310 308 306 304 301 306 306 306 310 304 306 308 303 292 279 295 300 306 302 294 285
167 169 168 170 173 167 162 160 151 147 149 152 152 154 154 151 145 137 135 153 157 165 167 164 176 165 170 160 172 162 175 191 178 139 123 87 106 114 272 258 272 279 282 278 290 301 297 284 274 270 271 291 302 304 301 298 297 286 274 273 291 296 295 291 290 296 297 298 298 299 301 304 304 303 307 309 308 307 304 297 289 290 292 294 288
171 173 175 175 169 167 165 160 155 149 153 159 159 155 153 153 144 140 147 154 154 158 157 171 185 184 180 183 180 183 180 189 163 165 163 150 133 210 251 255 257 261 270 282 279 278 277 273 276 288 300 306 305 303 301 301 299 297 287 281 281 280 278 283 286 284 287 289 287 292 295 291 292 298 292 287 294 292 295 294 292 294 294 286 282
177 178 178 173 168 165 163 161 154 160 161 156 159 159 158 154 146 144 149 151 166 169 166 194 199 203 189 191 190 184 185 182 184 188 189 193 191 215 231 251 260 264 266 265 263 265 271 278 291 311 306 301 299 298 303 305 303 301 300 298 296 292 291 289 283 282 283 281 282 279 276 281 289 285 287 294 290 291 288 289 288 293 295 302 303
180 181 176 172 173 170 168 162 163 167 164 169 167 164 155 151 153 154 156 160 174 165 189 204 206 205 197 197 197 199 184 196 196 194 199 205 207 210 227 248 253 258 260 256 257 262 270 284 282 272 281 286 285 288 295 298 301 303 303 302 300 298 293 289 291 289 282 283 286 281 280 279 285 291 286 288 289 287 288 287 287 289 289 288 287
178 178 180 179 178 174 166 169 171 171 173 168 165 159 159 157 156 159 172 172 163 183 207 202 211 202 192 206 206 204 191 206 199 203 205 212 219 225 233 241 249 254 259 264 265 265 273 284 287 278 276 296 300 297 287 283 289 294 301 298 290 283 285 290 288 286 290 290 290 287 280 281 284 283 282 287 287 291 288 286 283 278 280 279 282
181 184 185 187 181 174 172 172 175 174 169 166 164 168 167 174 169 164 156 161 180 191 205 209 203 206 202 206 212 209 193 211 209 208 208 215 223 228 233 239 250 254 258 262 264 278 283 277 281 285 277 284 283 285 283 277 276 274 275 265 264 270 273 276 282 288 285 279 275 277 279 271 278 277 281 284 289 286 287 285 283 283 282 281 289
186 188 192 189 178 176 177 177 176 172 170 169 170 176 178 167 165 170 170 178 180 190 198 201 204 201 208 203 206 216 207 215 215 211 212 217 225 232 232 241 243 251 254 259 265 257 261 267 271 272 268 267 265 279 282 282 278 276 275 278 277 272 271 264 253 250 254 261 266 271 278 281 278 283 283 282 274 274 276 279 284 285 286 289 287
192 193 195 187 184 182 178 178 176 174 173 172 176 180 179 178 175 172 168 175 177 177 205 191 203 206 202 197 207 225 230 222 219 218 217 219 223 228 233 240 244 244 252 254 253 252 248 249 253 258 260 262 271 286 292 291 281 282 288 298 305 298 287 289 299 303 303 297 291 288 290 293 299 298 300 301 302 305 303 301 303 301 298 296 292
197 197 193 188 188 183 179 179 181 178 176 176 183 185 180 181 176 167 169 178 179 191 197 199 195 194 199 199 207 228 224 230 226 219 218 219 218 210 225 230 239 237 245 244 244 244 239 240 247 248 257 256 270 285 290 297 305 319 315 300 290 298 308 311 305 302 303 302 301 301 300 301 302 303 304 305 305 306 306 301 296 300 295 295 291
201 195 193 192 190 184 184 183 183 180 177 187 189 189 182 176 178 176 178 178 187 194 185 188 194 190 196 205 204 213 226 226 226 224 222 219 214 202 215 216 235 238 241 249 248 245 246 260 260 257 259 255 267 280 291 315 323 308 295 308 312 304 299 305 307 301 300 301 306 307 307 305 304 304 304 303 303 304 299 295 301 300 291 285 289
197 195 197 193 191 190 188 185 185 182 186 194 188 181 182 183 179 176 183 181 186 168 174 184 197 204 201 201 211 213 225 228 228 227 224 222 217 187 198 210 231 239 235 237 240 239 246 253 260 262 261 268 277 293 311 315 303 303 314 307 305 308 307 309 301 305 320 322 313 313 307 307 306 303 301 306 308 310 305 295 293 286 287 290 294
198 199 197 194 192 189 188 188 189 186 193 191 185 186 168 157 172 179 182 178 173 173 174 181 194 210 200 198 213 214 218 232 229 233 228 224 217 193 193 212 228 232 227 230 231 241 235 232 251 272 278 281 288 302 308 306 307 311 309 309 307 300 301 297 312 322 322 319 312 311 306 307 309 307 305 302 300 298 303 305 310 314 311 310 308
195 200 195 191 190 190 189 189 191 195 191 187 179 171 171 175 170 173 175 171 167 172 181 184 193 209 203 204 204 221 214 228 236 231 230 223 218 208 195 217 221 223 225 236 241 239 244 242 231 263 276 285 297 303 303 306 310 310 316 300 284 293 310 322 329 331 322 315 312 311 311 314 312 311 311 313 314 313 312 313 311 309 306 305 306
196 190 186 189 190 187 190 193 194 190 177 159 165 180 181 169 175 173 167 169 177 186 180 184 193 209 216 216 216 219 219 221 228 237 230 224 218 217 203 210 219 213 229 230 234 234 238 252 245 257 273 291 298 298 305 310 310 320 303 298 304 312 321 347 333 323 316 315 315 310 310 311 314 315 314 313 315 319 322 319 316 313 309 306 303
177 180 186 189 192 191 191 186 184 174 173 174 172 178 171 168 170 166 167 173 180 185 188 184 190 211 224 224 219 217 214 220 224 225 231 225 220 220 221 219 223 219 220 233 233 232 241 253 242 250 283 291 295 304 308 310 316 304 302 309 313 319 337 346 324 315 313 312 311 308 308 312 315 316 320 321 323 323 321 317 312 308 302 300 297
171 181 191 196 190 190 187 184 178 174 172 168 173 170 173 173 168 175 174 174 179 188 193 188 194 211 219 227 222 217 211 210 226 224 222 225 222 222 224 226 224 220 226 234 235 250 249 226 203 268 282 290 303 308 308 309 306 305 308 311 320 337 351 326 319 311 306 306 305 305 307 308 310 314 321 320 318 319 317 314 312 311 309 306 302
176 191 196 194 191 185 172 176 177 175 173 168 172 176 172 166 174 182 174 183 186 194 198 187 202 210 213 220 221 216 208 206 212 224 221 219 222 223 225 227 229 231 234 225 220 220 244 253 263 272 282 301 306 307 307 302 300 299 305 316 334 4 332 315 304 304 303 299 300 298 300 304 307 304 306 311 310 308 305 305 303 298 299 302 306
188 201 198 192 186 161 171 182 179 177 174 182 185 182 177 178 182 179 183 194 194 198 198 194 205 207 214 217 214 212 203 202 208 213 222 218 222 224 225 226 229 231 233 237 242 247 249 249 256 277 303 303 296 275 253 272 296 305 312 320 327 308 298 301 295 293 288 294 294 298 298 304 306 302 300 298 301 305 310 310 316 317 317 312 305
196 195 194 188 174 172 180 183 178 175 181 179 180 175 177 181 182 184 190 193 199 203 203 200 202 203 211 212 205 197 202 203 204 201 205 209 215 221 227 228 226 227 230 236 246 250 254 252 249 264 274 286 298 302 302 303 305 297 281 275 275 275 278 264 264 268 284 291 293 293 298 301 300 302 302 304 305 308 314 314 313 307 312 315 313
194 201 195 185 184 181 187 175 172 181 187 181 185 192 192 188 191 196 193 195 195 204 199 202 202 200 204 197 187 193 209 208 207 199 194 196 202 209 216 209 207 202 217 221 219 207 199 191 246 319 337 315 295 297 285 274 267 267 269 270 274 271 272 287 299 293 281 277 283 293 299 302 300 298 298 302 305 311 316 314 315 315 320 318 311
194 191 184 177 194 184 186 182 186 180 186 197 213 205 196 196 208 222 231 206 207 201 200 210 209 202 187 184 182 202 208 213 217 197 190 190 192 194 207 203 204 208 215 222 199 145 140 168 165 236 246 251 269 267 274 279 274 264 267 274 268 271 289 302 287 285 282 290 290 298 296 295 293 291 297 303 308 312 316 314 316 314 312 311 307
187 206 189 192 191 175 187 189 189 190 190 200 202 233 238 217 214 216 231 218 218 226 217 217 206 187 199 207 188 192 203 217 202 201 201 203 208 208 208 210 211 213 214 234 189 169 177 187 197 211 230 232 251 257 258 259 264 279 268 267 281 290 280 269 271 280 287 289 293 296 291 289 290 297 303 306 307 311 314 322 315 314 312 315 313
201 209 193 209 195 190 187 191 193 193 193 189 196 209 241 259 234 227 221 221 225 225 224 225 214 204 195 205 217 223 231 218 207 203 203 205 211 216 217 220 222 223 225 234 154 177 175 195 204 203 221 223 237 241 246 249 256 263 271 268 255 260 277 279 275 281 292 299 294 285 283 284 289 298 305 308 309 312 316 315 308 310 310 312 311
211 215 205 206 192 191 190 190 183 189 196 187 193 198 209 226 252 236 229 224 223 226 228 227 222 212 207 202 189 226 227 221 211 205 206 212 219 224 227 231 233 231 238 223 191 194 189 201 207 208 214 224 239 239 236 240 247 252 264 284 277 249 255 272 275 287 291 293 290 288 286 289 291 297 300 304 310 311 315 318 321 319 314 308 301
218 220 199 192 191 187 183 189 193 190 195 193 198 196 204 213 225 236 230 231 230 228 228 230 231 229 221 215 206 199 204 211 216 219 221 223 226 230 233 236 235 234 240 230 183 207 194 206 213 215 210 228 233 233 235 233 238 246 246 247 265 269 253 259 290 286 280 277 286 288 291 289 294 297 297 304 309 312 316 316 318 314 311 310 305
217 211 204 195 186 194 193 194 194 200 196 198 201 199 211 211 222 217 205 210 230 234 233 231 229 228 228 225 220 214 210 213 220 226 230 231 232 234 235 237 239 238 237 205 197 205 203 207 217 214 215 222 226 227 233 233 233 235 247 251 252 262 264 272 283 280 281 285 284 280 286 288 290 295 300 303 305 307 311 314 318 319 318 315 311
218 223 221 198 193 199 195 195 195 194 192 199 203 206 212 208 204 211 208 208 213 216 214 223 228 225 226 229 230 228 226 225 226 229 231 231 234 235 234 233 231 235 235 193 199 203 200 211 213 222 212 221 223 216 227 226 231 235 240 250 255 258 269 273 269 274 278 283 283 281 283 289 292 292 296 305 310 312 313 316 316 316 312 311 311
220 224 230 232 210 195 189 193 189 191 198 203 200 206 202 197 210 217 221 222 215 218 225 214 215 263 244 237 235 236 242 244 242 243 244 242 238 229 227 227 225 222 218 207 193 207 201 210 211 224 217 224 220 221 220 222 227 230 235 235 250 257 260 265 267 276 276 270 276 290 297 292 288 290 296 296 294 300 306 311 311 311 309 307 311
205 228 244 216 205 192 176 172 179 182 188 184 183 192 196 205 211 207 213 224 229 218 169 114 67 310 349 17 3 295 244 243 249 249 245 240 236 235 235 227 222 223 221 218 205 200 211 217 210 219 213 221 220 221 218 225 228 230 238 235 235 250 254 251 257 252 266 282 285 286 284 286 291 293 298 298 300 301 303 302 302 307 314 316 318
162 193 214 156 148 135 116 129 147 151 140 151 162 169 188 192 196 192 202 212 213 211 230 220 189 191 222 276 265 237 296 284 269 256 249 244 240 235 233 230 224 221 225 213 204 198 210 213 206 212 217 213 224 220 220 228 228 228 231 241 244 239 258 265 279 287 282 278 278 279 284 288 290 294 295 295 300 303 301 300 302 311 312 312 310
69 60 108 134 145 126 128 113 114 113 121 126 141 148 171 165 167 174 185 175 195 196 194 201 210 205 219 197 149 191 207 234 226 239 233 238 249 253 251 239 230 232 224 215 197 200 202 210 213 214 213 213 219 220 215 227 224 231 233 235 247 252 258 265 264 261 263 263 274 277 281 284 286 285 287 293 298 298 296 295 306 311 308 307 307
103 73 102 115 80 104 100 116 118 119 139 134 144 142 151 160 176 182 175 175 194 190 195 208 215 208 205 186 171 183 203 218 228 229 230 236 237 244 241 240 236 231 228 223 214 213 218 219 208 213 216 216 218 222 220 219 223 230 231 233 237 251 250 244 248 254 259 263 268 277 279 283 285 284 285 285 287 291 291 301 308 306 305 306 302
92 108 101 118 114 87 91 102 115 133 124 131 144 146 169 167 165 164 171 193 199 201 211 211 221 200 197 221 231 218 201 223 225 226 227 228 232 235 236 234 231 234 231 226 220 214 219 218 211 213 218 218 216 217 219 218 223 227 230 236 237 243 252 249 246 250 256 262 266 271 277 280 282 289 290 288 294 296 296 295 297 302 304 303 301
85 91 96 87 99 106 110 107 118 108 115 123 135 148 149 156 154 157 187 191 198 202 204 207 204 168 235 247 253 255 251 223 216 227 231 235 241 245 242 239 233 232 231 225 215 216 216 216 215 210 215 219 212 218 211 219 219 223 228 231 236 242 246 250 248 247 250 256 262 265 268 271 279 284 288 296 296 291 289 293 296 299 300 303 306
76 79 75 88 97 115 127 133 118 121 123 130 136 129 139 139 152 167 181 194 206 200 205 225 227 216 233 259 270 274 276 281 250 230 225 232 238 246 246 241 233 230 227 222 211 203 207 211 217 216 216 217 212 208 209 217 214 219 223 230 235 238 243 250 256 253 251 254 257 263 267 278 285 281 278 276 283 288 288 295 299 296 296 298 298
78 76 71 75 76 79 96 110 114 121 120 120 113 120 122 117 130 150 161 204 195 212 219 237 231 241 239 262 270 278 279 278 277 277 270 257 243 241 241 238 232 224 219 212 209 201 201 211 221 228 224 223 218 214 214 216 207 213 220 227 235 240 242 246 248 249 244 251 256 262 273 278 278 280 279 284 285 288 291 290 291 296 301 299 301
71 86 91 92 88 93 72 82 90 99 101 104 110 111 120 155 176 184 193 210 236 238 242 241 242 244 254 250 248 252 256 259 259 260 261 261 267 269 265 255 242 232 227 224 215 210 214 218 222 227 232 232 223 221 223 221 215 217 218 218 229 239 240 238 239 241 239 245 260 268 273 272 272 273 281 281 280 276 279 285 285 298 302 301 301
62 69 86 97 89 98 95 96 96 114 127 148 159 170 180 184 205 214 225 228 232 236 245 248 248 248 246 248 246 249 252 255 256 252 253 256 255 260 262 262 261 249 238 231 225 215 216 213 215 220 228 231 228 226 229 226 225 225 225 223 229 238 240 241 244 248 249 245 252 256 265 266 271 273 276 276 276 278 276 278 283 289 292 296 294
54 79 79 96 113 105 112 113 107 105 117 137 142 179 199 201 203 218 227 232 244 254 259 262 265 261 259 255 253 254 256 257 257 257 253 251 252 252 256 259 261 259 254 244 231 225 221 220 219 220 227 232 229 229 230 228 227 227 227 228 231 238 240 241 238 241 243 241 235 242 254 260 270 274 278 279 278 277 277 278 281 291 292 293 293
55 63 72 70 82 96 102 110 115 122 139 190 202 213 220 262 282 266 263 267 265 260 261 263 261 261 262 264 262 262 260 260 262 260 259 258 257 258 258 258 257 256 257 255 246 236 228 225 225 226 230 233 233 234 235 233 236 233 234 235 234 235 236 234 238 237 233 232 232 235 243 257 259 260 266 267 268 270 275 278 286 290 290 289 292
58 72 70 74 65 102 146 124 162 183 200 210 207 217 226 235 240 245 248 249 250 253 248 253 259 257 253 256 257 261 262 263 262 264 263 261 261 261 258 254 254 253 250 251 248 242 240 238 233 230 231 234 233 236 240 238 239 238 238 234 238 242 244 243 241 233 233 235 230 233 240 244 254 259 260 258 258 260 265 276 285 286 289 288 286
58 58 77 78 98 18 82 131 157 150 220 171 184 222 245 225 240 241 245 245 254 256 258 255 256 259 260 269 269 267 264 263 262 261 261 260 257 252 254 252 250 247 243 245 246 243 241 241 238 237 235 234 233 235 237 238 241 243 244 239 244 248 250 250 251 248 243 233 228 226 229 243 246 250 250 260 268 269 270 273 279 284 283 286 286
47 44 50 72 77 43 151 202 219 231 198 218 227 226 239 244 247 249 251 252 254 259 259 257 258 264 264 259 260 264 266 264 263 263 265 265 264 260 255 251 251 248 248 246 248 246 243 242 241 240 236 237 236 238 239 240 243 243 247 251 252 251 251 250 247 249 250 246 231 227 232 235 239 244 253 256 262 264 268 270 275 278 280 278 282